Location: Jordan Lake
(35.7395°N, 79.0242°W)
Time: 02:55:12
(UTC-05:00)

Hubble Space Telescope - Visible Passes

Search period start: 09 December 2019 00:00
Search period end: 19 December 2019 00:00
Orbit: 536 x 540 km, 28.5° (Epoch: 08 December)

Date Brightness Start Highest point End Pass type
(mag) Time Alt. Az. Time Alt. Az. Time Alt. Az.
14 Dec 3.6 04:59:42 10° S 05:00:58 11° SSE 05:02:14 10° SE visible
14 Dec 2.8 06:38:09 10° SW 06:41:32 24° S 06:44:55 10° ESE visible
15 Dec 3.4 04:50:11 14° SSE 04:50:14 14° SSE 04:52:21 10° SE visible
15 Dec 2.6 06:27:22 10° SW 06:30:52 26° S 06:34:21 10° ESE visible
16 Dec 3.4 04:40:33 15° SE 04:40:33 15° SE 04:42:08 10° ESE visible
16 Dec 2.5 06:16:38 10° SW 06:20:11 28° S 06:23:46 10° ESE visible
17 Dec 3.6 04:30:48 14° SE 04:30:48 14° SE 04:31:46 10° ESE visible
17 Dec 2.3 06:06:09 11° SW 06:09:31 29° S 06:13:08 10° ESE visible
18 Dec 3.9 04:20:58 11° ESE 04:20:58 11° ESE 04:21:19 10° ESE visible
18 Dec 2.3 05:56:19 16° SW 05:58:51 30° S 06:02:29 10° ESE visible
